Location: Cheyres
(46.8153°N, 6.7877°E)
Time: 01:07:26
(UTC+00:00)

Tiros 1 - Pass Details

Date: 01 June 2022
Orbit: 629 x 663 km, 48.4° (Epoch: 05 July)

Event Time Altitude Azimuth Distance (km) Brightness Sun altitude
Rises 21:02:47 0° 208° (SSW) 2,902 10.2 -13.4°
Reaches altitude 10° 21:05:25 10° 195° (SSW) 1,997 9.3 -13.6°
Maximum altitude 21:09:07 24° 141° (SE) 1,295 8.1 -14.0°
Drops below altitude 10° 21:12:49 10° 88° (E) 2,008 9.4 -14.3°
Sets 21:15:29 0° 74° (ENE) 2,922 10.3 -14.6°
